This demonstration page uses our WeatherBlox Daily Observations layout. Learn more.

Left ArrowRight Arrow

39.08367, -84.50855

Hourly Observations for June 8, 2020

Temp ( °F °C ) Dew Point ( °F °C ) Humidity (%) Winds ( mph kmh ) Pressure ( in mb ) Visibility ( mi km ) Precip ( " mm )
12:53 am 00:53 Clear 61 16.1 57 13.9 87 87 N 5 7 30.02 1017 10 16.0934 0 0
1:53 am 01:53 Clear 60 15.6 56 13.3 86 86 NE 3 6 30.01 1016 10 16.0934 0 0
2:53 am 02:53 Clear 58 14.4 55 12.8 90 90 NE 5 7 30.01 1016 10 16.0934 0 0
3:53 am 03:53 Clear 58 14.4 55 12.8 90 90 Calm 29.98 1015 10 16.0934 0 0
4:53 am 04:53 Clear 58 14.4 56 13.3 93 93 Calm 29.98 1015 10 16.0934 0 0
5:53 am 05:53 Clear 59 15 55 12.8 87 87 NNE 6 9 30 1016 10 16.0934 0 0
6:53 am 06:53 Sunny 58 14.4 55 12.8 90 90 NNE 5 7 30.02 1017 10 16.0934 0 0
7:53 am 07:53 Sunny 65 18.3 56 13.3 73 73 NNE 5 7 30.04 1017 10 16.0934 0 0
8:53 am 08:53 Sunny 69 20.6 56 13.3 63 63 NE 7 11 30.05 1018 10 16.0934 0 0
9:53 am 09:53 Sunny 74 23.3 56 13.3 54 54 ENE 8 13 30.04 1017 10 16.0934 0 0
10:53 am 10:53 Sunny 78 25.6 56 13.3 47 47 E 8 13 30.03 1017 10 16.0934 0 0
11:53 am 11:53 Sunny 81 27.2 55 12.8 41 41 ENE 8 13 30.02 1017 10 16.0934 0 0
12:53 pm 12:53 Sunny 83 28.3 55 12.8 38 38 ENE 10 17 30.01 1016 10 16.0934 0 0
1:53 pm 13:53 Sunny 84 28.9 56 13.3 38 38 ENE 8 13 29.99 1016 10 16.0934 0 0
2:53 pm 14:53 Sunny 85 29.4 53 11.7 33 33 VRB 7 11 29.98 1015 10 16.0934 0 0
3:53 pm 15:53 Sunny 86 30 54 12.2 33 33 VRB 6 9 29.96 1015 10 16.0934 0 0
4:53 pm 16:53 Sunny 86 30 53 11.7 32 32 E 3 6 29.94 1014 10 16.0934 0 0
5:53 pm 17:53 Sunny 84 28.9 55 12.8 37 37 ENE 9 15 29.93 1014 10 16.0934 0 0
6:53 pm 18:53 Sunny 82 27.8 55 12.8 40 40 ENE 7 11 29.9 1013 10 16.0934 0 0
7:53 pm 19:53 Sunny 79 26.1 59 15 50 50 ENE 6 9 29.91 1013 10 16.0934 0 0
8:53 pm 20:53 Sunny 74 23.3 62 16.7 67 67 Calm 29.9 1013 10 16.0934 0 0
9:53 pm 21:53 Clear 71 21.7 61 16.1 71 71 NE 3 6 29.91 1013 10 16.0934 0 0
10:53 pm 22:53 Clear 68 20 61 16.1 78 78 Calm 29.93 1013 10 16.0934 0 0
11:53 pm 23:53 Clear 67 19.4 61 16.1 81 81 Calm 29.93 1014 10 16.0934 0 0

Powered by AerisWeather